Showing default

UPPER FREE FLYER, 43763

Orbit data source: Space-Track

UPPER FREE FLYER, 43763 is a payload satellite owned by Spaceflight Ind (US) in SSO that was launched on Mon, 03 Dec 2018 UTC via an FALCON 9 launch vehicle from the Air Force Western Test Range (AFWTR). Payload-class satellites include a variety of spacecraft equipped with specific instruments for various scientific and technological missions. These include communications satellites like Starlink; space stations such as the ISS; scientific satellites like the Hubble; Earth observation satellites from companies like Planet Labs, Umbra, and HawkEye 360; GPS; miniature CubeSats for education and research; and military/defense satellites.

Loading next visibility...
Identifier
43763, 2018-099F
Orbit
SSO
Country
Flag of USUS
Related business
Manufacturer
Spaceflight Ind
Mission
Commercial Technology
Bus & Motor
SFL-UFF, Unknown motor
Mass
2,271 kg wet, 1,072 kg dry
Launch date (UTC)
2018-12-03 (7 years ago)
Launch vehicle
FALCON 9
Launch site
Air Force Western Test Range (AFWTR)
Object type
Payload
Rocket body
Debris
Shape & HBR
Cyl + 1 Sail, 2.0 m
Radar Cross Section
6.440 m², Large (>1 m²)

Expand to show TLE details & history
Last TLE update: 10 hours ago

TLE from 10 hours ago
0 UPPER FREE FLYER
1 43763U 18099F   26125.06100564  .00003660  00000-0  22114-3 0  9996
2 43763  97.4388 175.3129 0014711  94.1377 266.1535 15.11202833406034
Epoch: 2026-05-05T01:27Z
TLE epoch observation values (Epoch: 2026-05-05T01:27:50.887Z)
Latitude
-0°
Longitude
-69.59039°
Altitude
536.305 km
Speed
7.594 km/s
True Right ascension
11h 41m 15s
True Declination
0° 00' 00"
Sunlit
Object was in full shadow at epoch
Visualization orbit readout
Latitude
Unknown
Longitude
Unknown
Altitude
Unknown
Speed
Unknown
Apparent Right ascension
Unknown
Apparent Declination
Unknown
Sunlit
N/A
Visualization observer readout
Local Sidereal Time
18:52:51
Azimuth
Unknown
Elevation
Unknown
Doppler factor
Unknown
Orbital elements
Apogee altitude
539.671 km
Perigee altitude
519.348 km
Semi-major axis
6,907.647 km
Eccentricity
0.00147
Inclination
97.4388°
RAAN
175.3129°
Arg. of periapsis
94.1377°
True anomaly
265.98533°
Mean anomaly
266.1535°
Eccentric anomaly
266.06941°
Mean motion
3.78049 °/min
Orbital period
95.23 mins
BSTAR
0.00022114
Loading maneuver chart data...
Computing Atmospheric mass density...
Loading historical data...
Loading historical data...
Loading historical data...
Loading historical data...
Loading historical data...
Loading historical data...
Loading historical data...

Documentation

Showing up to 5 results
|